Weather History for Ozark, AL

Change the Weather History Date:

Thursday, September 6, 2012

  Actual Average Record
Temperature  
Mean Temperature 80 °F -  
Max Temperature 90 °F 84 °F 96 °F (2010)
Min Temperature 71 °F 66 °F 58 °F (2011)
Cooling Degree Days 14    
Growing Degree Days 30 (Base 50)    
Moisture  
Dew Point 73 °F    
Average Humidity 85    
Maximum Humidity 100    
Minimum Humidity 60    
Precipitation  
Precipitation 0.00 in - - ()
Sea Level Pressure  
Sea Level Pressure 29.95 in    
Wind  
Wind Speed 3 mph (SSE)    
Max Wind Speed 8 mph    
Max Gust Speed -    
Visibility 9 miles    
Events Rain    
Averages and records for this station are not official NWS values.
T = Trace of Precipitation, MM = Missing Value Source: NWS Daily Summary

Daily Weather History Graph

Daily Weather History Graph

Search for Another Location

Airport:

Trip Planner

Search our weather history database for the weather conditions in past years. The results will help you decide how hot, cold, wet, or windy it might be!

Date:

Astronomy

Sep. 06, 2012 Rise Set
Actual Time 6:22 AM CDT 6:59 PM CDT
Civil Twilight 5:57 AM CDT 7:23 PM CDT
Nautical Twilight 5:28 AM CDT 7:52 PM CDT
Astronomical Twilight 4:59 AM CDT 8:22 PM CDT
Moon 10:36 PM CDT (9/6) 11:54 AM CDT (9/6)
Length of Visible Light 13h 26m
Length of Day
12h 37m
Waning Gibbous, 67% of the Moon is Illuminated
Sep 6
Waning Gibbous
Sep 8
Last Quarter
Sep 15
New
Sep 22
First Quarter
Sep 29
Full

Hourly Weather History & Observations

Time (CDT) Temp. Heat Index Dew Point Humidity Pressure Visibility Wind Dir Wind Speed Gust Speed Precip Events Conditions
12:55 AM 73.4 °F - 72.9 °F 98% 29.93 in 10.0 mi SE 3.5 mph - N/A   Clear
1:55 AM 73.2 °F - 72.3 °F 97% 29.92 in 10.0 mi ESE 5.8 mph - N/A   Clear
2:55 AM 72.7 °F - 71.8 °F 97% 29.92 in 10.0 mi Calm Calm - N/A   Clear
3:55 AM 72.0 °F - 71.4 °F 98% 29.93 in 10.0 mi Calm Calm - N/A   Partly Cloudy
4:55 AM 71.2 °F - 70.7 °F 98% 29.93 in 10.0 mi Calm Calm - N/A   Clear
5:55 AM 71.6 °F - 71.2 °F 99% 29.96 in 10.0 mi North 5.8 mph - N/A   Clear
5:58 AM 71.6 °F - 71.6 °F 100% 29.96 in 10.0 mi North 4.6 mph - N/A   Partly Cloudy
6:55 AM 71.8 °F - 71.2 °F 98% 29.96 in 6.0 mi ESE 4.6 mph - N/A   Partly Cloudy
7:05 AM 71.6 °F - 71.6 °F 100% 29.96 in 2.5 mi SE 5.8 mph - N/A   Clear
7:09 AM 71.6 °F - 71.6 °F 100% 29.96 in 1.2 mi SE 4.6 mph - N/A   Clear
7:15 AM 71.6 °F - 71.6 °F 100% 29.96 in 1.2 mi ESE 3.5 mph - N/A   Clear
7:16 AM 71.6 °F - 71.6 °F 100% 29.96 in 1.5 mi ESE 4.6 mph - N/A   Clear
7:18 AM 71.6 °F - 71.6 °F 100% 29.96 in 2.0 mi ESE 4.6 mph - N/A   Clear
7:20 AM 71.6 °F - 71.6 °F 100% 29.96 in 2.5 mi ESE 3.5 mph - N/A   Clear
7:29 AM 73.4 °F - 71.6 °F 94% 29.96 in 3.0 mi ESE 2.3 mph - N/A   Clear
7:48 AM 75.2 °F - 73.4 °F 94% 29.97 in 10.0 mi Calm Calm - N/A   Partly Cloudy
7:55 AM 75.4 °F - 73.0 °F 92% 29.97 in 10.0 mi Calm Calm - N/A   Partly Cloudy
8:55 AM 79.2 °F - 74.1 °F 84% 29.98 in 10.0 mi Calm Calm - N/A   Clear
9:55 AM 82.9 °F 89.4 °F 73.9 °F 74% 29.99 in 10.0 mi Variable 3.5 mph - N/A   Scattered Clouds
9:58 AM 82.4 °F 88.2 °F 73.4 °F 74% 29.99 in 10.0 mi Variable 3.5 mph - N/A Rain Light Rain
10:07 AM 82.4 °F 88.2 °F 73.4 °F 74% 29.99 in 10.0 mi Calm Calm - N/A   Scattered Clouds
10:12 AM 82.4 °F 88.2 °F 73.4 °F 74% 29.99 in 10.0 mi SSW 5.8 mph - N/A   Mostly Cloudy
10:26 AM 82.4 °F 88.2 °F 73.4 °F 74% 29.99 in 10.0 mi Calm Calm - N/A   Scattered Clouds
10:27 AM 82.4 °F 88.2 °F 73.4 °F 74% 29.99 in 10.0 mi ESE 3.5 mph - N/A   Mostly Cloudy
10:30 AM 84.2 °F 90.9 °F 73.4 °F 70% 29.99 in 10.0 mi Variable 4.6 mph - N/A   Mostly Cloudy
10:35 AM 84.2 °F 90.9 °F 73.4 °F 70% 29.99 in 10.0 mi Calm Calm - N/A   Mostly Cloudy
10:53 AM 84.2 °F 90.9 °F 73.4 °F 70% 29.99 in 10.0 mi SSW 5.8 mph - N/A   Mostly Cloudy
10:55 AM 83.3 °F 89.6 °F 73.4 °F 72% 29.99 in 10.0 mi South 5.8 mph - 0.00 in   Mostly Cloudy
11:55 AM 86.2 °F 93.8 °F 73.8 °F 66% 29.98 in 10.0 mi SSE 6.9 mph - N/A   Partly Cloudy
12:55 PM 87.3 °F 95.3 °F 73.6 °F 64% 29.97 in 10.0 mi Variable 3.5 mph - N/A   Clear
1:55 PM 88.3 °F 96.4 °F 73.2 °F 61% 29.95 in 10.0 mi WSW 4.6 mph - N/A   Clear
2:55 PM 88.3 °F 95.9 °F 73.0 °F 60% 29.93 in 10.0 mi Variable 4.6 mph - N/A   Partly Cloudy
3:55 PM 84.6 °F 92.4 °F 74.7 °F 72% 29.91 in 10.0 mi WSW 8.1 mph - N/A   Mostly Cloudy
4:55 PM 88.2 °F 96.9 °F 74.1 °F 63% 29.91 in 10.0 mi SW 4.6 mph - N/A   Partly Cloudy
5:55 PM 87.3 °F 95.8 °F 74.3 °F 65% 29.91 in 10.0 mi WSW 4.6 mph - N/A   Clear
6:55 PM 82.2 °F 89.9 °F 76.1 °F 82% 29.90 in 10.0 mi SW 3.5 mph - N/A   Clear
7:55 PM 79.7 °F - 75.0 °F 86% 29.91 in 10.0 mi Calm Calm - N/A   Clear
8:55 PM 77.9 °F - 75.4 °F 92% 29.93 in 10.0 mi Calm Calm - N/A   Scattered Clouds
9:44 PM 78.8 °F - 75.2 °F 89% 29.94 in 10.0 mi South 3.5 mph - N/A   Overcast
9:51 PM 78.8 °F - 75.2 °F 89% 29.94 in 10.0 mi South 3.5 mph - N/A   Mostly Cloudy
9:55 PM 78.1 °F - 75.0 °F 90% 29.94 in 10.0 mi SSW 3.5 mph - N/A   Mostly Cloudy
10:55 PM 77.0 °F - 74.3 °F 91% 29.95 in 10.0 mi South 4.6 mph - N/A   Clear
11:55 PM 75.9 °F - 74.1 °F 94% 29.94 in 10.0 mi SSW 3.5 mph - N/A   Partly Cloudy